SCP
0 0 0 0 0 0 0 0 0 0 0 0 0 0 0 0 0 0 0 0 0 0 0 0 0 0 0 0 0 0 0 0 0 0 0 0 0 0 0 0 0 0 0 0 0 0 0 0 0 0 0 0 0 0
0 0 0 0 0 0 0 0 0 0 0 0 0 0 0 0 0 0 0 0 0 0 0 0 0 0 0 0 0 0 0 0 0 0 0 0 0 0 0 0 0 0 0 0 0 0 0 0 0 0 0 0 0 0
0 0 0 0 0 0 0 0 0 0 0 0 0 0 0 0 0 0 0 0 0 0 0 0 0 0 0 0 0 0 0 0 0 0 0 0 0 0 0 0 0 0 0 0 0 0 0 0 0 0 0 0 0 0
0 0 0 0 0 0 0 0 0 0 0 0 0 0 0 0 0 0 0 0 0 0 0 0 0 0 0 0 0 0 0 0 0 0 0 0 0 0 0 0 0 0 0 0 0 0 0 0 0 0 0 0 0 0
0 0 0 0 0 0 0 0 0 0 0 0 0 0 0 0 0 0 0 0 0 0 0 0 0 0 0 0 0 0 0 0 0 0 0 0 0 0 0 0 0 0 0 0 0 0 0 0 0 0 0 0 0 0
0 0 0 0 0 0 0 0 0 0 0 0 0 0 0 0 0 0 0 0 0 0 0 0 0 0 0 0 0 0 0 0 0 0 0 0 0 0 0 0 0 0 0 0 0 0 0 0 0 0 0 0 0 0
0 0 0 0 0 0 0 0 0 0 0 0 0 0 0 0 0 0 0 0 0 0 0 0 0 0 0 0 0 0 0 0 0 0 0 0 0 0 0 0 0 0 0 0 0 0 0 0 0 0 0 0 0 0
0 0 0 0 0 0 0 0 0 0 0 0 0 -0 0 0 0 0 0 0 0 0 0 0 0 0 0 0 0 0 0 0 0 0 0 0 0 0 0 0 0 0 0 0 0 0 0 0 0 0 0 0 0 0
0 0 0 0 0 0 0 0 0 0 0 0 0 0 0 0 0 0 0 0 0 0 0 0 0 0 0 0 0 0 0 0 0 0 0 0 0 0 0 0 0 0 0 0 0 0 0 0 0 0 0 0 0 0
-0 0 0 0 0 0 0 0 0 0 0 0 0 0 0 0 0 0 0 0 0 0 0 0 0 0 0 0 0 0 0 0 0 0 0 0 0 0 0 0 0 0 0 0 0 0 0 0 0 0 0 0 0 0
0 -0 0 0 0 0 0 0 0 0 0 0 0 0 0 0 0 0 0 0 0 0 0 0 0 0 0 0 0 0 0 0 0 0 0 0 0 0 0 0 0 0 0 0 0 0 0 0 0 0 0 0 0 0
0 0 -0 0 0 0 0 0 0 -0 0 0 0 0 0 0 0 0 0 0 0 0 0 0 0 0 0 0 0 0 0 0 0 0 0 0 0 0 0 0 0 0 0 0 0 0 0 0 0 0 0 0 0 0
0 0 0 0 0 0 0 0 0 0 0 0 0 0 0 0 0 0 0 0 0 0 0 0 0 0 0 0 0 0 0 0 0 0 0 0 0 0 0 0 0 0 0 0 0 0 0 0 0 0 0 0 0 0
0 0 0 0 0 0 0 0 0 0 0 0 0 0 0 0 0 0 0 0 0 0 0 0 0 0 0 0 0 0 0 0 0 0 0 0 0 0 0 0 0 0 0 0 0 0 0 0 0 0 0 0 0 0
0 0 0 -0 0 0 0 0 0 0 0 0 0 0 0 0 0 0 0 0 0 0 0 0 0 0 0 0 0 0 0 0 0 0 -0 0 0 -0 0 0 0 0 0 0 0 0 0 0 0 0 0 0 0 0
0 0 -0 -0 0 0 0 0 0 0 0 0 0 0 0 0 0 0 0 0 0 0 0 0 0 0 0 0 0 0 0 0 0 0 0 0 0 0 0 0 0 0 0 0 0 0 0 0 0 0 0 0 0 0
0 -0 -0 0 0 0 0 0 0 0 0 0 0 0 0 0 0 0 0 0 0 0 0 0 0 0 0 0 0 0 0 0 0 0 0 -0 0 -0 0 0 0 0 0 0 0 0 0 0 0 0 0 0 0 0
0 -0 0 0 0 0 0 0 0 0 0 0 0 0 0 0 0 0 0 0 0 0 0 0 0 0 0 0 0 0 0 0 0 0 0 0 0 -0 -0 -0 -0 -0 0 0 0 0 0 0 0 0 0 0 0 0
-0 -0 0 0 0 0 0 0 0 0 0 0 0 0 0 0 0 0 0 0 0 0 0 0 0 0 0 0 0 0 0 0 0 0 0 0 -0 -0 -0 -0 -0 0 0 0 0 0 0 0 0 0 0 0 0 0
0 0 0 0 0 0 0 0 0 0 0 0 0 0 0 0 0 0 0 0 0 0 0 0 0 0 0 0 0 0 0 0 0 0 0 0 0 0 0 0 0 -0 0 0 0 0 0 0 0 0 0 0 0 0
0 0 0 0 0 0 0 0 0 0 0 0 0 0 0 0 0 0 0 0 0 0 0 0 0 0 0 0 0 0 0 0 0 0 0 -0 -0 0 0 0 0 0 0 0 0 0 0 0 0 0 0 0 0 0
0 0 0 0 0 0 0 0 0 0 0 -0 0 0 0 0 0 0 0 0 0 0 0 0 0 0 0 0 0 0 0 0 0 0 0 0 0 0 0 0 0 0 0 0 0 0 0 0 0 0 0 0 0 0
0 0 0 0 0 0 0 0 0 0 0 0 0 0 0 0 0 0 0 0 0 0 0 0 0 0 0 0 0 0 0 0 0 0 0 0 0 0 0 0 0 0 0 0 0 0 0 0 0 0 0 0 0 0
0 0 0 0 0 0 0 0 0 0 0 0 0 -0 -0 0 0 0 0 0 0 -0 0 0 0 0 0 0 0 0 0 0 0 0 0 0 0 0 0 0 0 0 0 0 0 0 0 0 0 0 0 0 0 0
0 0 0 0 0 0 0 0 0 0 0 0 -0 0 0 -0 0 -0 0 0 0 -0 0 0 0 0 0 -0 -0 -0 0 0 0 0 -0 -0 -0 -0 -0 0 0 0 0 0 0 0 0 0 0 0 0 0 0 0
0 0 0 0 0 0 0 0 0 0 0 0 0 0 0 0 0 0 0 0 0 0 0 0 0 0 0 -0 -0 0 0 0 0 -0 -0 0 0 -0 -0 0 0 0 0 0 0 0 0 0 0 0 0 0 0 0
0 0 0 0 0 0 0 0 0 0 0 0 0 0 0 0 0 0 0 0 0 0 0 0 0 0 0 0 -0 -0 -0 -0 -0 -0 -0 -0 -0 0 0 0 0 0 0 0 0 0 0 0 0 0 0 0 0 0
0 0 0 0 0 0 0 0 0 0 0 0 0 0 0 0 0 0 0 0 0 0 0 0 0 0 0 0 0 0 0 0 0 0 0 0 0 0 0 0 0 0 0 0 0 0 0 0 0 0 0 0 0 0
0 0 0 0 0 0 0 0 0 0 0 0 0 0 0 0 0 0 0 0 0 0 0 0 0 0 0 0 0 0 0 0 0 0 0 0 0 0 0 0 0 0 0 0 0 0 0 0 0 0 0 0 0 0
0 0 0 0 -0 -0 -0 0 0 0 0 0 0 0 0 0 0 0 0 0 0 -0 -0 -0 -0 0 -0 0 0 0 -0 -0 -0 0 0 0 0 0 0 0 0 0 0 0 0 0 0 0 0 0 0 0 0 0
0 0 0 0 0 0 0 0 0 0 0 0 0 0 -0 0 0 0 0 -0 -0 0 0 -0 -0 -0 -0 -0 -0 0 0 0 0 0 0 0 0 0 0 0 0 0 0 0 0 0 0 0 0 0 0 0 0 0
0 0 0 0 0 0 0 0 0 0 0 0 0 0 0 0 0 -0 0 0 0 0 0 -0 -0 -0 0 0 0 0 0 0 0 0 0 0 0 0 0 0 0 0 0 0 0 0 0 0 0 0 0 0 0 0
0 0 0 0 0 0 0 0 0 0 0 0 0 0 0 0 0 0 0 0 0 0 0 0 0 0 0 0 0 0 0 0 0 0 0 0 0 0 0 0 0 0 0 0 0 0 0 0 0 0 0 0 0 0
Wind_Speed_500mb
22 23 21 20 19 18 15 16 21 26 28 31 29 30 36 39 39 39 33 41 35 15 15 25 23 13 15 14 7 10 10 4 3 8 9 6 8 12 7 10 15 17 16 9 6 10 18 21 14 13 5 8 23 37
11 14 15 15 17 17 17 15 13 12 17 25 28 31 34 38 42 36 45 34 39 27 11 36 38 37 26 22 27 27 1 9 16 6 3 6 5 4 7 13 1 11 10 13 17 12 3 40 2 22 19 27 28 39
14 11 8 8 10 13 12 16 15 16 18 17 21 28 31 33 40 41 34 34 40 22 17 32 30 33 44 34 20 11 14 6 6 6 10 4 6 7 10 11 5 8 5 6 7 11 9 38 16 23 21 30 36 46
9 8 7 7 5 3 2 6 12 21 21 25 24 25 29 34 38 39 43 44 43 6 4 10 25 47 46 35 49 42 23 14 6 7 4 4 5 11 6 2 8 5 20 9 6 1 5 29 32 36 35 36 46 53
9 11 8 4 3 6 9 12 16 19 22 22 29 33 32 31 35 37 42 50 47 38 4 6 19 31 33 39 58 45 47 26 16 8 5 6 6 7 2 1 7 16 11 14 14 27 16 24 56 44 44 50 53 58
16 15 9 7 6 9 14 20 25 28 27 29 28 34 39 36 33 36 24 45 53 55 7 5 5 13 24 38 44 51 47 44 27 15 8 12 9 12 9 9 9 38 34 28 8 22 41 24 57 56 50 52 54 52
16 13 14 13 13 14 18 26 30 31 34 39 37 34 41 42 42 53 10 15 50 58 17 7 5 20 23 18 26 29 45 35 33 15 12 11 13 19 6 11 8 33 41 35 31 25 25 24 36 57 52 55 54 51
27 28 26 24 22 21 26 33 35 40 40 39 40 43 38 43 42 51 64 23 47 57 17 6 5 8 30 15 13 23 19 28 26 18 11 11 11 6 9 35 33 15 39 43 37 43 28 40 41 60 62 61 58 56
23 33 30 26 21 24 29 33 36 37 34 36 41 49 45 48 52 54 46 60 48 34 11 10 13 9 30 17 12 16 19 8 16 10 12 21 12 13 19 47 40 57 47 32 33 41 36 39 47 53 64 62 65 65
16 14 24 23 21 21 33 38 38 38 38 41 44 37 35 45 48 29 33 51 56 29 17 6 15 8 24 19 13 14 12 8 9 11 17 9 13 47 65 77 62 61 60 59 58 47 55 53 58 63 64 66 70 69
12 15 15 19 23 26 33 40 45 49 37 37 41 33 27 40 44 27 21 19 11 10 24 18 21 10 21 8 7 15 5 6 10 10 12 11 11 30 81 70 74 66 57 59 65 68 75 79 74 66 66 66 67 69
16 20 22 23 27 28 31 34 42 42 33 31 30 58 52 24 14 11 8 2 8 9 9 13 18 16 14 14 6 10 5 3 12 15 10 6 11 62 69 83 98 90 76 70 69 70 77 83 81 75 66 64 65 66
22 26 25 21 24 21 24 35 43 39 26 13 12 16 14 10 11 13 11 3 6 9 19 23 9 20 10 10 6 6 9 6 3 9 9 16 36 61 69 75 78 81 85 87 85 87 89 88 85 79 74 68 67 73
28 26 19 18 17 21 26 42 38 16 8 6 9 11 9 7 7 9 15 10 14 23 46 45 14 7 10 6 5 9 6 2 4 6 5 6 13 18 19 27 46 63 69 84 94 97 99 98 93 86 82 74 72 78
14 13 17 18 24 24 35 34 29 13 6 4 9 10 9 5 5 11 29 25 25 49 55 19 13 9 4 6 6 6 6 9 9 11 9 17 24 27 29 28 31 42 55 76 91 99 100 96 88 82 73 70 69 72
13 17 22 33 34 31 31 29 11 12 7 4 10 6 2 5 3 6 14 14 24 48 27 13 8 6 6 7 9 14 12 12 7 7 12 6 10 28 26 26 31 31 39 49 51 69 71 66 70 72 68 65 66 65
16 20 27 19 26 28 25 8 6 4 7 8 5 9 5 14 10 8 11 15 36 35 6 7 10 16 6 6 6 8 9 7 18 24 32 35 39 34 31 33 32 36 34 32 37 45 51 58 64 64 64 63 59 54
12 17 24 18 28 15 4 0 6 9 11 14 6 11 11 17 12 12 12 21 15 8 11 7 11 5 11 14 13 9 6 12 23 27 31 34 36 37 35 32 32 31 32 28 30 36 46 54 58 56 53 52 51 48
5 16 31 26 15 5 4 8 9 9 9 7 9 13 16 16 25 14 11 14 12 13 11 5 5 7 7 5 4 6 9 12 15 24 32 34 34 32 27 23 24 22 20 18 23 33 41 46 48 50 48 48 47 46
23 29 27 7 17 6 8 10 11 12 4 6 9 10 9 11 12 19 13 11 10 5 4 3 1 3 2 8 12 17 20 19 23 27 26 25 27 23 17 12 11 13 15 21 28 36 41 44 44 44 44 43 40 38
13 8 10 15 6 11 13 9 13 10 9 9 9 7 9 10 11 12 13 11 9 9 3 5 6 9 13 14 12 15 16 16 16 17 21 25 21 16 11 10 13 18 22 29 34 38 37 37 41 42 39 38 36 33
14 15 11 6 8 11 16 16 12 11 8 12 7 6 8 4 7 9 9 16 8 5 6 8 10 10 9 8 12 15 17 17 16 17 17 17 15 13 14 17 18 21 25 28 31 35 35 34 34 34 32 30 28 26
16 8 9 12 9 13 7 7 5 8 6 3 4 6 5 5 5 6 8 6 5 9 9 8 8 6 3 5 8 12 11 7 7 9 7 5 7 10 14 17 18 19 23 25 27 29 29 28 28 27 27 26 23 21
12 12 18 16 24 4 6 13 11 10 10 8 6 5 6 7 12 4 5 4 8 9 6 7 7 3 3 5 7 9 10 10 10 7 7 9 11 17 17 17 19 18 17 20 21 21 21 20 21 22 21 20 19 19
9 25 18 15 18 12 12 9 10 8 7 7 5 5 5 13 3 5 3 6 9 9 7 7 6 3 2 4 6 8 10 8 8 8 8 9 9 10 12 13 12 12 12 15 13 13 15 18 18 17 16 16 18 19
18 22 15 9 13 9 6 7 9 7 5 6 5 10 10 4 7 3 4 10 9 8 7 6 5 4 5 3 3 5 7 6 5 4 5 5 6 6 7 8 10 9 10 11 12 15 15 15 16 16 17 19 21 22
13 10 15 19 8 5 8 8 5 5 8 7 6 10 5 8 3 5 10 9 6 8 7 6 6 5 4 5 5 4 2 2 2 1 2 3 4 4 6 6 7 8 8 11 12 13 14 15 17 18 19 20 21 23
10 19 7 19 12 14 7 5 7 5 4 5 3 8 5 5 5 7 6 9 6 5 4 5 5 4 4 3 3 2 3 3 4 4 4 4 6 6 6 7 8 8 7 8 10 12 13 14 16 18 19 20 22 26
12 24 12 10 7 12 10 4 3 3 8 4 3 4 5 4 9 9 9 8 5 4 3 1 2 2 3 2 1 1 2 5 4 3 4 4 7 5 7 6 6 6 6 7 8 9 11 14 17 19 22 24 24 28
13 23 7 5 7 6 5 8 8 13 9 8 9 9 8 5 7 9 6 5 4 3 2 3 3 2 2 3 1 2 3 5 6 5 2 1 3 3 4 4 4 5 7 9 11 13 17 22 22 26 27 28 31 35
18 13 4 8 4 4 10 15 11 11 9 6 8 8 9 9 5 17 18 14 9 8 7 6 5 5 4 3 1 1 3 2 2 2 2 3 4 6 8 10 12 13 15 17 20 23 26 28 30 33 36 38 39 43
16 13 5 6 4 8 8 18 9 6 6 6 5 11 12 10 8 10 21 18 13 10 8 6 5 7 6 5 4 5 6 7 9 9 9 10 12 14 15 17 19 21 22 24 26 28 31 34 36 39 42 44 44 46
8 9 8 5 4 4 14 19 5 10 2 4 6 12 12 6 4 13 16 18 15 12 9 9 9 9 10 10 11 12 13 14 15 17 19 19 20 21 23 24 27 28 30 32 33 35 38 40 43 44 46 49 51 52
Wind_Direction_500mb
241 238 233 231 235 229 226 228 234 231 232 233 233 228 227 220 212 216 226 228 214 190 201 205 204 168 147 172 152 163 131 187 122 202 191 182 180 192 165 161 174 169 165 167 139 186 249 149 126 196 172 144 165 175
212 214 215 217 231 231 227 227 220 232 240 236 238 238 234 232 211 209 221 216 207 211 225 218 224 228 225 223 209 181 254 169 179 154 170 111 148 181 145 197 142 206 187 174 189 201 138 181 226 215 177 162 170 168
123 128 164 204 217 230 229 236 242 249 246 245 241 237 237 233 231 213 213 214 210 207 216 222 215 220 226 220 218 198 231 210 197 159 148 134 196 150 174 219 138 230 201 194 140 187 199 194 206 183 179 164 158 162
127 114 108 91 83 46 350 296 271 259 257 251 250 243 236 231 230 223 218 217 218 175 230 239 226 230 227 227 232 240 246 245 225 179 112 147 210 200 203 92 207 162 149 170 277 97 122 197 200 185 182 171 157 159
196 194 192 202 268 300 306 307 306 298 264 252 253 239 241 233 229 229 229 221 218 198 184 226 241 229 225 228 229 231 232 235 209 158 155 217 127 147 45 356 223 186 170 193 226 176 183 202 200 196 187 177 173 168
226 224 226 245 278 290 298 292 288 279 285 262 256 244 233 230 224 223 229 234 217 216 238 213 239 220 218 224 223 222 218 214 222 208 209 206 204 189 187 203 239 209 211 215 228 214 209 221 209 201 193 187 185 185
223 242 252 262 274 292 301 300 294 278 269 259 258 253 231 226 219 213 215 210 209 205 210 187 240 195 192 203 207 206 211 212 216 223 223 214 194 188 168 240 222 225 229 219 223 205 197 194 193 202 200 194 191 188
259 252 245 246 262 282 290 298 298 296 276 261 251 241 236 226 226 227 229 231 185 184 194 199 156 165 182 166 185 187 176 194 204 212 223 201 152 166 228 241 233 241 228 218 217 205 222 213 202 201 202 198 196 197
279 259 251 251 263 282 291 306 296 296 266 254 246 234 231 226 222 226 233 224 217 202 177 169 157 182 174 173 161 171 178 184 194 203 194 177 186 206 218 234 200 214 220 225 219 221 218 218 218 208 206 206 210 207
326 283 258 260 263 290 302 297 313 312 288 268 245 219 206 215 212 209 203 186 194 198 185 200 166 152 167 165 158 169 180 212 206 207 171 211 218 221 232 239 234 226 224 225 222 217 221 224 217 214 214 220 222 220
330 320 298 291 291 297 300 306 306 317 291 251 204 193 173 180 180 199 209 181 162 176 162 164 177 134 181 146 161 197 201 209 221 195 210 194 214 219 231 236 240 236 227 223 226 236 238 235 224 219 219 220 225 228
294 298 289 290 285 283 292 306 311 315 294 309 164 148 140 166 183 224 168 148 178 160 162 145 159 150 152 162 140 165 226 231 237 164 203 219 219 221 228 234 240 238 234 232 235 238 238 239 236 233 236 238 235 228
295 294 273 287 280 283 297 305 308 308 277 203 135 126 134 187 181 190 138 219 166 151 155 150 127 157 130 177 107 136 214 248 2 203 224 239 231 239 237 239 243 245 242 236 232 233 235 237 237 237 240 242 236 224
299 278 258 271 301 296 300 302 317 313 261 184 119 152 181 183 211 189 142 163 160 152 156 151 121 136 143 147 149 168 195 111 251 235 256 278 275 270 279 263 248 248 243 240 235 234 235 236 235 234 235 234 231 225
266 253 265 287 310 297 285 303 316 242 250 195 145 170 168 170 334 165 127 125 144 165 148 128 87 101 129 129 158 121 164 213 215 247 252 240 268 302 320 315 291 262 246 242 238 237 237 237 235 233 229 227 224 221
261 281 300 307 309 283 290 312 277 215 186 98 58 128 180 167 30 79 95 104 134 152 131 95 105 108 191 153 161 187 170 201 215 221 242 285 281 320 330 332 323 304 280 262 255 247 242 239 234 229 221 215 212 210
251 288 308 315 301 293 305 280 241 92 72 59 53 55 19 49 81 94 106 121 146 155 147 125 147 198 98 140 220 184 208 218 227 237 253 268 278 286 303 303 294 293 287 273 259 245 234 225 218 212 207 201 199 200
238 285 310 276 274 292 238 4 83 64 66 39 45 2 48 54 75 80 97 130 147 144 146 171 123 150 172 186 224 212 330 266 269 278 286 293 295 299 300 301 292 288 281 267 245 231 217 209 204 202 199 199 198 199
326 315 309 290 253 177 99 51 43 92 69 62 63 46 53 64 59 65 94 146 119 125 128 149 140 212 211 29 4 334 326 325 299 283 285 291 296 300 303 300 281 268 257 242 221 210 203 199 197 196 196 198 198 194
273 290 300 211 171 137 94 58 60 81 72 68 60 51 60 59 62 56 72 116 129 96 65 19 360 63 351 330 308 291 294 303 309 306 299 298 301 303 303 293 242 214 202 185 186 188 188 187 184 184 186 188 189 190
231 207 147 141 108 74 80 68 62 75 99 82 88 61 68 55 37 34 37 54 58 36 45 22 349 333 317 313 319 323 310 293 286 286 299 308 303 278 257 223 202 181 181 175 179 176 177 182 179 176 177 181 184 188
122 133 132 48 79 75 73 53 90 99 120 116 98 81 70 50 33 20 26 45 51 9 340 328 325 336 342 331 321 312 303 290 279 275 282 283 272 247 214 195 184 176 173 169 169 170 169 172 176 179 183 187 191 196
108 90 61 40 88 54 56 50 122 41 84 14 96 65 31 46 30 31 74 50 22 357 348 346 342 332 332 350 354 352 340 308 278 260 257 224 213 206 187 175 172 168 169 168 172 170 172 181 186 190 192 194 199 206
74 50 30 36 28 48 21 32 41 40 47 28 38 57 26 344 344 74 85 6 4 353 1 6 4 25 35 18 14 30 47 68 81 101 137 150 166 159 160 165 165 171 176 180 188 179 180 188 197 203 203 201 204 212
68 11 19 6 17 25 33 20 7 39 56 354 46 24 357 341 52 60 48 350 353 5 4 25 27 25 29 25 28 47 62 67 85 89 108 126 141 146 148 155 162 170 178 192 183 185 195 202 203 206 210 212 221 230
65 11 35 345 2 37 348 47 27 19 8 35 3 315 343 38 50 352 352 331 341 342 351 357 3 27 40 13 1 25 39 53 68 69 104 122 122 146 159 164 168 174 185 191 196 201 205 211 217 222 228 233 238 244
51 347 14 26 12 25 74 64 79 64 50 26 325 343 19 63 326 273 334 345 338 342 348 347 337 346 358 351 348 359 9 360 337 330 196 203 188 175 180 189 198 205 214 216 216 218 220 226 232 235 238 244 249 253
69 27 45 347 26 33 106 51 41 29 302 335 291 18 94 171 233 325 318 338 342 343 339 321 304 300 298 295 287 260 247 243 243 245 236 212 210 208 203 198 201 207 217 225 228 230 232 235 238 242 247 252 257 266
33 355 358 21 40 45 45 99 215 10 342 312 134 290 269 285 335 340 336 335 327 328 343 329 314 291 299 292 285 238 194 180 165 169 181 197 185 191 181 181 192 206 217 226 231 239 245 253 260 266 269 273 274 275
3 358 13 28 70 16 8 12 346 331 326 313 295 301 300 341 4 358 357 3 24 38 19 15 18 27 48 34 45 110 163 172 164 147 166 194 195 183 176 199 228 249 260 268 272 273 274 278 283 283 283 280 280 281
347 350 28 42 99 36 350 345 335 329 327 317 322 307 320 324 30 32 26 21 20 25 27 27 36 36 39 40 50 325 5 39 41 28 338 296 286 281 281 284 284 284 283 282 282 281 280 282 284 284 285 287 289 290
3 22 24 35 349 354 352 352 329 316 326 332 336 343 346 346 12 28 14 16 15 10 7 13 355 360 347 342 328 315 313 308 305 306 300 293 290 289 289 288 288 288 288 287 285 285 284 285 285 285 286 287 288 288
344 4 19 350 355 8 350 346 347 356 306 346 358 0 7 2 360 16 4 6 4 357 348 338 330 324 318 311 305 304 305 304 302 300 299 297 294 291 290 289 288 288 287 287 287 288 289 289 289 289 289 291 292 293
Wind_Speed_850mb
22 23 21 20 19 18 15 16 21 26 28 31 29 30 36 39 39 39 33 41 35 15 15 25 23 13 15 14 7 10 10 4 3 8 9 6 8 12 7 10 15 17 16 9 6 10 18 21 14 13 5 8 23 37
11 14 15 15 17 17 17 15 13 12 17 25 28 31 34 38 42 36 45 34 39 27 11 36 38 37 26 22 27 27 1 9 16 6 3 6 5 4 7 13 1 11 10 13 17 12 3 40 2 22 19 27 28 39
14 11 8 8 10 13 12 16 15 16 18 17 21 28 31 33 40 41 34 34 40 22 17 32 30 33 44 34 20 11 14 6 6 6 10 4 6 7 10 11 5 8 5 6 7 11 9 38 16 23 21 30 36 46
9 8 7 7 5 3 2 6 12 21 21 25 24 25 29 34 38 39 43 44 43 6 4 10 25 47 46 35 49 42 23 14 6 7 4 4 5 11 6 2 8 5 20 9 6 1 5 29 32 36 35 36 46 53
9 11 8 4 3 6 9 12 16 19 22 22 29 33 32 31 35 37 42 50 47 38 4 6 19 31 33 39 58 45 47 26 16 8 5 6 6 7 2 1 7 16 11 14 14 27 16 24 56 44 44 50 53 58
16 15 9 7 6 9 14 20 25 28 27 29 28 34 39 36 33 36 24 45 53 55 7 5 5 13 24 38 44 51 47 44 27 15 8 12 9 12 9 9 9 38 34 28 8 22 41 24 57 56 50 52 54 52
16 13 14 13 13 14 18 26 30 31 34 39 37 34 41 42 42 53 10 15 50 58 17 7 5 20 23 18 26 29 45 35 33 15 12 11 13 19 6 11 8 33 41 35 31 25 25 24 36 57 52 55 54 51
27 28 26 24 22 21 26 33 35 40 40 39 40 43 38 43 42 51 64 23 47 57 17 6 5 8 30 15 13 23 19 28 26 18 11 11 11 6 9 35 33 15 39 43 37 43 28 40 41 60 62 61 58 56
23 33 30 26 21 24 29 33 36 37 34 36 41 49 45 48 52 54 46 60 48 34 11 10 13 9 30 17 12 16 19 8 16 10 12 21 12 13 19 47 40 57 47 32 33 41 36 39 47 53 64 62 65 65
16 14 24 23 21 21 33 38 38 38 38 41 44 37 35 45 48 29 33 51 56 29 17 6 15 8 24 19 13 14 12 8 9 11 17 9 13 47 65 77 62 61 60 59 58 47 55 53 58 63 64 66 70 69
12 15 15 19 23 26 33 40 45 49 37 37 41 33 27 40 44 27 21 19 11 10 24 18 21 10 21 8 7 15 5 6 10 10 12 11 11 30 81 70 74 66 57 59 65 68 75 79 74 66 66 66 67 69
16 20 22 23 27 28 31 34 42 42 33 31 30 58 52 24 14 11 8 2 8 9 9 13 18 16 14 14 6 10 5 3 12 15 10 6 11 62 69 83 98 90 76 70 69 70 77 83 81 75 66 64 65 66
22 26 25 21 24 21 24 35 43 39 26 13 12 16 14 10 11 13 11 3 6 9 19 23 9 20 10 10 6 6 9 6 3 9 9 16 36 61 69 75 78 81 85 87 85 87 89 88 85 79 74 68 67 73
28 26 19 18 17 21 26 42 38 16 8 6 9 11 9 7 7 9 15 10 14 23 46 45 14 7 10 6 5 9 6 2 4 6 5 6 13 18 19 27 46 63 69 84 94 97 99 98 93 86 82 74 72 78
14 13 17 18 24 24 35 34 29 13 6 4 9 10 9 5 5 11 29 25 25 49 55 19 13 9 4 6 6 6 6 9 9 11 9 17 24 27 29 28 31 42 55 76 91 99 100 96 88 82 73 70 69 72
13 17 22 33 34 31 31 29 11 12 7 4 10 6 2 5 3 6 14 14 24 48 27 13 8 6 6 7 9 14 12 12 7 7 12 6 10 28 26 26 31 31 39 49 51 69 71 66 70 72 68 65 66 65
16 20 27 19 26 28 25 8 6 4 7 8 5 9 5 14 10 8 11 15 36 35 6 7 10 16 6 6 6 8 9 7 18 24 32 35 39 34 31 33 32 36 34 32 37 45 51 58 64 64 64 63 59 54
12 17 24 18 28 15 4 0 6 9 11 14 6 11 11 17 12 12 12 21 15 8 11 7 11 5 11 14 13 9 6 12 23 27 31 34 36 37 35 32 32 31 32 28 30 36 46 54 58 56 53 52 51 48
5 16 31 26 15 5 4 8 9 9 9 7 9 13 16 16 25 14 11 14 12 13 11 5 5 7 7 5 4 6 9 12 15 24 32 34 34 32 27 23 24 22 20 18 23 33 41 46 48 50 48 48 47 46
23 29 27 7 17 6 8 10 11 12 4 6 9 10 9 11 12 19 13 11 10 5 4 3 1 3 2 8 12 17 20 19 23 27 26 25 27 23 17 12 11 13 15 21 28 36 41 44 44 44 44 43 40 38
13 8 10 15 6 11 13 9 13 10 9 9 9 7 9 10 11 12 13 11 9 9 3 5 6 9 13 14 12 15 16 16 16 17 21 25 21 16 11 10 13 18 22 29 34 38 37 37 41 42 39 38 36 33
14 15 11 6 8 11 16 16 12 11 8 12 7 6 8 4 7 9 9 16 8 5 6 8 10 10 9 8 12 15 17 17 16 17 17 17 15 13 14 17 18 21 25 28 31 35 35 34 34 34 32 30 28 26
16 8 9 12 9 13 7 7 5 8 6 3 4 6 5 5 5 6 8 6 5 9 9 8 8 6 3 5 8 12 11 7 7 9 7 5 7 10 14 17 18 19 23 25 27 29 29 28 28 27 27 26 23 21
12 12 18 16 24 4 6 13 11 10 10 8 6 5 6 7 12 4 5 4 8 9 6 7 7 3 3 5 7 9 10 10 10 7 7 9 11 17 17 17 19 18 17 20 21 21 21 20 21 22 21 20 19 19
9 25 18 15 18 12 12 9 10 8 7 7 5 5 5 13 3 5 3 6 9 9 7 7 6 3 2 4 6 8 10 8 8 8 8 9 9 10 12 13 12 12 12 15 13 13 15 18 18 17 16 16 18 19
18 22 15 9 13 9 6 7 9 7 5 6 5 10 10 4 7 3 4 10 9 8 7 6 5 4 5 3 3 5 7 6 5 4 5 5 6 6 7 8 10 9 10 11 12 15 15 15 16 16 17 19 21 22
13 10 15 19 8 5 8 8 5 5 8 7 6 10 5 8 3 5 10 9 6 8 7 6 6 5 4 5 5 4 2 2 2 1 2 3 4 4 6 6 7 8 8 11 12 13 14 15 17 18 19 20 21 23
10 19 7 19 12 14 7 5 7 5 4 5 3 8 5 5 5 7 6 9 6 5 4 5 5 4 4 3 3 2 3 3 4 4 4 4 6 6 6 7 8 8 7 8 10 12 13 14 16 18 19 20 22 26
12 24 12 10 7 12 10 4 3 3 8 4 3 4 5 4 9 9 9 8 5 4 3 1 2 2 3 2 1 1 2 5 4 3 4 4 7 5 7 6 6 6 6 7 8 9 11 14 17 19 22 24 24 28
13 23 7 5 7 6 5 8 8 13 9 8 9 9 8 5 7 9 6 5 4 3 2 3 3 2 2 3 1 2 3 5 6 5 2 1 3 3 4 4 4 5 7 9 11 13 17 22 22 26 27 28 31 35
18 13 4 8 4 4 10 15 11 11 9 6 8 8 9 9 5 17 18 14 9 8 7 6 5 5 4 3 1 1 3 2 2 2 2 3 4 6 8 10 12 13 15 17 20 23 26 28 30 33 36 38 39 43
16 13 5 6 4 8 8 18 9 6 6 6 5 11 12 10 8 10 21 18 13 10 8 6 5 7 6 5 4 5 6 7 9 9 9 10 12 14 15 17 19 21 22 24 26 28 31 34 36 39 42 44 44 46
8 9 8 5 4 4 14 19 5 10 2 4 6 12 12 6 4 13 16 18 15 12 9 9 9 9 10 10 11 12 13 14 15 17 19 19 20 21 23 24 27 28 30 32 33 35 38 40 43 44 46 49 51 52
Wind_Direction_850mb
241 238 233 231 235 229 226 228 234 231 232 233 233 228 227 220 212 216 226 228 214 190 201 205 204 168 147 172 152 163 131 187 122 202 191 182 180 192 165 161 174 169 165 167 139 186 249 149 126 196 172 144 165 175
212 214 215 217 231 231 227 227 220 232 240 236 238 238 234 232 211 209 221 216 207 211 225 218 224 228 225 223 209 181 254 169 179 154 170 111 148 181 145 197 142 206 187 174 189 201 138 181 226 215 177 162 170 168
123 128 164 204 217 230 229 236 242 249 246 245 241 237 237 233 231 213 213 214 210 207 216 222 215 220 226 220 218 198 231 210 197 159 148 134 196 150 174 219 138 230 201 194 140 187 199 194 206 183 179 164 158 162
127 114 108 91 83 46 350 296 271 259 257 251 250 243 236 231 230 223 218 217 218 175 230 239 226 230 227 227 232 240 246 245 225 179 112 147 210 200 203 92 207 162 149 170 277 97 122 197 200 185 182 171 157 159
196 194 192 202 268 300 306 307 306 298 264 252 253 239 241 233 229 229 229 221 218 198 184 226 241 229 225 228 229 231 232 235 209 158 155 217 127 147 45 356 223 186 170 193 226 176 183 202 200 196 187 177 173 168
226 224 226 245 278 290 298 292 288 279 285 262 256 244 233 230 224 223 229 234 217 216 238 213 239 220 218 224 223 222 218 214 222 208 209 206 204 189 187 203 239 209 211 215 228 214 209 221 209 201 193 187 185 185
223 242 252 262 274 292 301 300 294 278 269 259 258 253 231 226 219 213 215 210 209 205 210 187 240 195 192 203 207 206 211 212 216 223 223 214 194 188 168 240 222 225 229 219 223 205 197 194 193 202 200 194 191 188
259 252 245 246 262 282 290 298 298 296 276 261 251 241 236 226 226 227 229 231 185 184 194 199 156 165 182 166 185 187 176 194 204 212 223 201 152 166 228 241 233 241 228 218 217 205 222 213 202 201 202 198 196 197
279 259 251 251 263 282 291 306 296 296 266 254 246 234 231 226 222 226 233 224 217 202 177 169 157 182 174 173 161 171 178 184 194 203 194 177 186 206 218 234 200 214 220 225 219 221 218 218 218 208 206 206 210 207
326 283 258 260 263 290 302 297 313 312 288 268 245 219 206 215 212 209 203 186 194 198 185 200 166 152 167 165 158 169 180 212 206 207 171 211 218 221 232 239 234 226 224 225 222 217 221 224 217 214 214 220 222 220
330 320 298 291 291 297 300 306 306 317 291 251 204 193 173 180 180 199 209 181 162 176 162 164 177 134 181 146 161 197 201 209 221 195 210 194 214 219 231 236 240 236 227 223 226 236 238 235 224 219 219 220 225 228
294 298 289 290 285 283 292 306 311 315 294 309 164 148 140 166 183 224 168 148 178 160 162 145 159 150 152 162 140 165 226 231 237 164 203 219 219 221 228 234 240 238 234 232 235 238 238 239 236 233 236 238 235 228
295 294 273 287 280 283 297 305 308 308 277 203 135 126 134 187 181 190 138 219 166 151 155 150 127 157 130 177 107 136 214 248 2 203 224 239 231 239 237 239 243 245 242 236 232 233 235 237 237 237 240 242 236 224
299 278 258 271 301 296 300 302 317 313 261 184 119 152 181 183 211 189 142 163 160 152 156 151 121 136 143 147 149 168 195 111 251 235 256 278 275 270 279 263 248 248 243 240 235 234 235 236 235 234 235 234 231 225
266 253 265 287 310 297 285 303 316 242 250 195 145 170 168 170 334 165 127 125 144 165 148 128 87 101 129 129 158 121 164 213 215 247 252 240 268 302 320 315 291 262 246 242 238 237 237 237 235 233 229 227 224 221
261 281 300 307 309 283 290 312 277 215 186 98 58 128 180 167 30 79 95 104 134 152 131 95 105 108 191 153 161 187 170 201 215 221 242 285 281 320 330 332 323 304 280 262 255 247 242 239 234 229 221 215 212 210
251 288 308 315 301 293 305 280 241 92 72 59 53 55 19 49 81 94 106 121 146 155 147 125 147 198 98 140 220 184 208 218 227 237 253 268 278 286 303 303 294 293 287 273 259 245 234 225 218 212 207 201 199 200
238 285 310 276 274 292 238 4 83 64 66 39 45 2 48 54 75 80 97 130 147 144 146 171 123 150 172 186 224 212 330 266 269 278 286 293 295 299 300 301 292 288 281 267 245 231 217 209 204 202 199 199 198 199
326 315 309 290 253 177 99 51 43 92 69 62 63 46 53 64 59 65 94 146 119 125 128 149 140 212 211 29 4 334 326 325 299 283 285 291 296 300 303 300 281 268 257 242 221 210 203 199 197 196 196 198 198 194
273 290 300 211 171 137 94 58 60 81 72 68 60 51 60 59 62 56 72 116 129 96 65 19 360 63 351 330 308 291 294 303 309 306 299 298 301 303 303 293 242 214 202 185 186 188 188 187 184 184 186 188 189 190
231 207 147 141 108 74 80 68 62 75 99 82 88 61 68 55 37 34 37 54 58 36 45 22 349 333 317 313 319 323 310 293 286 286 299 308 303 278 257 223 202 181 181 175 179 176 177 182 179 176 177 181 184 188
122 133 132 48 79 75 73 53 90 99 120 116 98 81 70 50 33 20 26 45 51 9 340 328 325 336 342 331 321 312 303 290 279 275 282 283 272 247 214 195 184 176 173 169 169 170 169 172 176 179 183 187 191 196
108 90 61 40 88 54 56 50 122 41 84 14 96 65 31 46 30 31 74 50 22 357 348 346 342 332 332 350 354 352 340 308 278 260 257 224 213 206 187 175 172 168 169 168 172 170 172 181 186 190 192 194 199 206
74 50 30 36 28 48 21 32 41 40 47 28 38 57 26 344 344 74 85 6 4 353 1 6 4 25 35 18 14 30 47 68 81 101 137 150 166 159 160 165 165 171 176 180 188 179 180 188 197 203 203 201 204 212
68 11 19 6 17 25 33 20 7 39 56 354 46 24 357 341 52 60 48 350 353 5 4 25 27 25 29 25 28 47 62 67 85 89 108 126 141 146 148 155 162 170 178 192 183 185 195 202 203 206 210 212 221 230
65 11 35 345 2 37 348 47 27 19 8 35 3 315 343 38 50 352 352 331 341 342 351 357 3 27 40 13 1 25 39 53 68 69 104 122 122 146 159 164 168 174 185 191 196 201 205 211 217 222 228 233 238 244
51 347 14 26 12 25 74 64 79 64 50 26 325 343 19 63 326 273 334 345 338 342 348 347 337 346 358 351 348 359 9 360 337 330 196 203 188 175 180 189 198 205 214 216 216 218 220 226 232 235 238 244 249 253
69 27 45 347 26 33 106 51 41 29 302 335 291 18 94 171 233 325 318 338 342 343 339 321 304 300 298 295 287 260 247 243 243 245 236 212 210 208 203 198 201 207 217 225 228 230 232 235 238 242 247 252 257 266
33 355 358 21 40 45 45 99 215 10 342 312 134 290 269 285 335 340 336 335 327 328 343 329 314 291 299 292 285 238 194 180 165 169 181 197 185 191 181 181 192 206 217 226 231 239 245 253 260 266 269 273 274 275
3 358 13 28 70 16 8 12 346 331 326 313 295 301 300 341 4 358 357 3 24 38 19 15 18 27 48 34 45 110 163 172 164 147 166 194 195 183 176 199 228 249 260 268 272 273 274 278 283 283 283 280 280 281
347 350 28 42 99 36 350 345 335 329 327 317 322 307 320 324 30 32 26 21 20 25 27 27 36 36 39 40 50 325 5 39 41 28 338 296 286 281 281 284 284 284 283 282 282 281 280 282 284 284 285 287 289 290
3 22 24 35 349 354 352 352 329 316 326 332 336 343 346 346 12 28 14 16 15 10 7 13 355 360 347 342 328 315 313 308 305 306 300 293 290 289 289 288 288 288 288 287 285 285 284 285 285 285 286 287 288 288
344 4 19 350 355 8 350 346 347 356 306 346 358 0 7 2 360 16 4 6 4 357 348 338 330 324 318 311 305 304 305 304 302 300 299 297 294 291 290 289 288 288 287 287 287 288 289 289 289 289 289 291 292 293